Location: Cormont
(50.5693°N, 1.7416°E)
Time: 05:40:09
(UTC+00:00)

SMAP - Pass Details

Date: 21 October 2019
Orbit: 682 x 683 km, 98.1° (Epoch: 21 November)

Event Time Altitude Azimuth Distance (km) Brightness Sun altitude
Rises 17:36:40 0° 180° (S) 3,033 6.5 -8.1°
Reaches altitude 10° 17:38:58 10° 185° (S) 2,122 5.8 -8.5°
Maximum altitude 17:43:27 49° 260° (W) 888 4.2 -9.2°
Drops below altitude 10° 17:47:59 10° 336° (NNW) 2,138 5.9 -9.9°
Sets 17:50:19 0° 342° (NNW) 3,058 6.6 -10.3°
